DELTA 1 DEB, 3417

Orbit data source: Space-Track

DELTA 1 DEB, 3417 is space debris in SSO originally from a launch on Fri, 16 Aug 1968 UTC launched from the Air Force Western Test Range (AFWTR). Debris objects in space refer to the collection of defunct objects orbiting the Earth. Examples of debris include non-operational satellites, rocket bodies, and fragments generated from explosions, collisions, or faulty payload assembly.

Loading next visibility...
Identifier
3417, 1968-069D
Orbit
SSO
Country
Flag of USUS
Related business
Manufacturer
Unknown
Mission
Spacecraft
Bus & Motor
Unknown
Mass
Unknown
Launch date (UTC)
1968-08-16 (57 years ago)
Launch vehicle
Unknown
Launch site
Air Force Western Test Range (AFWTR)
Object type
Payload
Rocket body
Debris
Shape & HBR
Unknown shape, 0.1 m
Radar Cross Section
Small (<0.1 m²)

Expand to show TLE details & history
Last TLE update: 4 days ago

TLE from 4 days ago
0 DELTA 1 DEB
1  3417U 68069D   25300.30463318 -.00000013  00000-0  24196-3 0  9992
2  3417 102.1543 240.0432 0066084 125.9506  29.4876 12.39773643893977
Epoch: 2025-10-27T07:18Z
TLE epoch observation values (Epoch: 2025-10-27T07:18:40.306Z)
Latitude
23.63372°
Longitude
-80.15193°
Altitude
1,464.808 km
Speed
7.153 km/s
True Right ascension
04h 21m 41s
True Declination
23° 31' 09"
Sunlit
Object was in full shadow at epoch
Visualization orbit readout
Latitude
Unknown
Longitude
Unknown
Altitude
Unknown
Speed
Unknown
Apparent Right ascension
Unknown
Apparent Declination
Unknown
Sunlit
N/A
Visualization observer readout
Local Sidereal Time
05:08:35
Azimuth
Unknown
Elevation
Unknown
Doppler factor
Unknown
Orbital elements
Apogee altitude
1,557.243 km
Perigee altitude
1,453.051 km
Semi-major axis
7,883.284 km
Eccentricity
0.00661
Inclination
102.1543°
RAAN
240.0432°
Arg. of periapsis
125.9506°
True anomaly
29.86305°
Mean anomaly
29.4876°
Eccentric anomaly
29.67505°
Mean motion
3.10086 °/min
Orbital period
116.1 mins
BSTAR
0.00024196
Loading maneuver chart data...
Computing Atmospheric mass density...
Loading historical data...
Loading historical data...
Loading historical data...
Loading historical data...
Loading historical data...
Loading historical data...
Loading historical data...

Documentation

Showing up to 5 results
|